EW4169 Weather Reports


Display with metric or nautical units.
time (UTC)temp
F
wind
direction
speed
MPH
gust
MPH
rain 1hr
in
rain 24hr
in
rain mn
in
humidity
%
barometer
mb
20260510133042 59 240 0.0 3.0 0.00 0.26 0.13 86 1011.9
20260510131600 59 149 1.0 3.0 0.00 0.26 0.13 90 1012.0
20260510131502 59 158 1.0 3.0 0.00 0.26 0.13 90 1012.0
20260510130043 58 135 1.0 2.0 0.00 0.28 0.13 93 1011.9
20260510124518 55 160 0.0 3.0 0.00 0.28 0.13 96 1011.7
20260510123037 54 139 0.0 3.0 0.00 0.28 0.13 97 1011.9
20260510121510 53 127 1.0 3.0 0.00 0.28 0.13 97 1011.5
20260510120045 52 121 1.0 3.0 0.00 0.30 0.13 97 1011.4
20260510114512 51 146 0.0 2.0 0.00 0.30 0.13 97 1011.5
20260510113028 50 262 0.0 0.0 0.00 0.30 0.13 97 1011.4
20260510111504 50 262 0.0 0.0 0.00 0.30 0.13 97 1011.0
20260510110044 49 262 0.0 0.0 0.00 0.31 0.13 97 1010.9
20260510104514 48 262 0.0 0.0 0.00 0.31 0.13 97 1010.6
20260510103046 48 262 0.0 0.0 0.00 0.31 0.13 97 1010.4
20260510101530 48 262 0.0 0.0 0.00 0.31 0.13 97 1010.2
20260510100004 48 274 0.0 0.0 0.00 0.31 0.13 96 1009.9
20260510094538 48 236 0.0 0.0 0.00 0.31 0.13 96 1009.8
20260510093057 49 135 0.0 0.0 0.00 0.31 0.13 96 1009.7
20260510091544 48 135 0.0 0.0 0.00 0.31 0.13 96 1009.6
20260510090011 49 135 0.0 0.0 0.00 0.31 0.13 96 1009.4
20260510084548 49 135 0.0 1.0 0.00 0.31 0.13 96 1009.4
20260510083013 49 229 1.0 2.0 0.00 0.31 0.13 95 1009.3
20260510081601 50 207 0.0 1.0 0.00 0.31 0.13 95 1009.2
20260510080024 50 186 0.0 2.0 0.01 0.31 0.13 95 1009.2
20260510074508 50 192 0.0 5.0 0.05 0.31 0.13 94 1009.3
20260510073032 51 129 1.0 3.0 0.08 0.31 0.13 94 1009.5
20260510071550 51 212 1.0 4.0 0.08 0.31 0.13 94 1009.6
20260510070033 51 151 2.0 7.0 0.07 0.31 0.12 93 1009.6
20260510064556 51 277 5.0 10.0 0.03 0.27 0.08 94 1009.7
20260510063042 50 205 2.0 5.0 0.01 0.24 0.05 95 1009.6
20260510061505 50 271 2.0 4.0 0.01 0.24 0.05 95 1009.6
20260510060052 50 277 0.0 3.0 0.01 0.24 0.05 94 1009.3
20260510054533 50 186 0.0 1.0 0.03 0.24 0.05 93 1009.4
20260510053052 50 208 0.0 2.0 0.04 0.23 0.04 93 1009.6
20260510051526 51 290 1.0 4.0 0.04 0.23 0.04 91 1009.9
20260510050048 52 99 3.0 5.0 0.04 0.23 0.04 89 1009.8
20260510044529 53 112 1.0 2.0 0.02 0.21 0.02 84 1010.2
20260510043007 54 237 3.0 11.0 0.00 0.19 0.00 81 1010.4
20260510041531 54 273 7.0 14.0 0.00 0.19 0.00 78 1010.5
20260510040023 54 293 11.0 17.0 0.00 0.19 0.19 78 1010.3
20260510034542 54 292 7.0 16.0 0.00 0.19 0.19 83 1010.2
20260510033057 50 269 6.0 8.0 0.00 0.19 0.19 94 1010.2
20260510031610 51 269 0.0 2.0 0.00 0.19 0.19 94 1009.2
20260510030006 49 278 2.0 4.0 0.00 0.19 0.19 96 1008.9
20260510024536 48 278 0.0 2.0 0.00 0.19 0.19 94 1008.6
20260510023025 48 278 1.0 2.0 0.00 0.19 0.19 93 1008.3
20260510021551 49 278 0.0 0.0 0.00 0.19 0.19 92 1008.0
20260510020010 50 278 0.0 0.0 0.00 0.19 0.19 93 1007.9
20260510014537 50 278 0.0 1.0 0.00 0.19 0.19 91 1008.0
20260510013016 50 278 2.0 3.0 0.00 0.19 0.19 88 1008.0
20260510011552 52 155 0.0 1.0 0.00 0.19 0.19 89 1007.9
20260510010023 54 143 0.0 0.0 0.00 0.19 0.19 85 1007.4
20260510004540 55 143 0.0 3.0 0.00 0.19 0.19 82 1007.2
20260510003103 57 132 2.0 7.0 0.00 0.19 0.19 80 1007.3
20260510001540 58 166 0.0 3.0 0.00 0.19 0.19 77 1007.2
20260510000100 59 205 2.0 4.0 0.00 0.19 0.19 75 1007.2
20260510000001 60 184 1.0 4.0 0.00 0.19 0.19 74 1007.2
20260509234543 61 148 0.0 6.0 0.00 0.19 0.19 72 1006.8
20260509233105 62 147 6.0 10.0 0.00 0.19 0.19 70 1006.6
20260509233004 62 141 6.0 10.0 0.00 0.19 0.19 70 1006.6
20260509231546 63 221 4.0 11.0 0.00 0.19 0.19 62 1006.6
20260509230057 63 214 2.0 9.0 0.00 0.19 0.19 63 1006.4
20260509224538 63 246 3.0 7.0 0.00 0.19 0.19 64 1006.5
20260509223054 62 173 4.0 7.0 0.00 0.19 0.19 67 1006.7
20260509221540 61 199 1.0 11.0 0.00 0.19 0.19 69 1006.9
20260509220058 62 144 3.0 7.0 0.00 0.19 0.19 69 1006.9
20260509214541 61 158 3.0 11.0 0.00 0.19 0.19 70 1006.7
20260509213116 61 128 3.0 9.0 0.00 0.19 0.19 70 1006.8
20260509213002 61 133 1.0 9.0 0.00 0.19 0.19 71 1006.8
20260509211548 61 175 5.0 8.0 0.00 0.19 0.19 72 1006.8
20260509210104 60 195 3.0 12.0 0.00 0.20 0.19 72 1007.0
20260509210002 60 201 3.0 12.0 0.00 0.20 0.19 73 1007.0
20260509204526 60 144 4.0 12.0 0.00 0.20 0.19 75 1007.0
20260509203004 59 237 7.0 12.0 0.00 0.20 0.19 78 1007.2
20260509201543 58 174 6.0 8.0 0.00 0.20 0.19 81 1007.5
20260509200103 58 160 5.0 11.0 0.00 0.20 0.19 82 1007.7
20260509200009 58 229 5.0 11.0 0.00 0.20 0.19 82 1007.7
20260509194548 58 232 6.0 15.0 0.00 0.20 0.19 83 1007.8
20260509193023 56 257 4.0 12.0 0.00 0.20 0.19 89 1008.2
20260509191546 55 190 4.0 9.0 0.00 0.20 0.19 94 1008.2
20260509190026 53 117 3.0 8.0 0.00 0.20 0.19 93 1008.5
20260509184547 53 213 2.0 5.0 0.01 0.20 0.19 93 1008.5
20260509183024 53 191 1.0 7.0 0.01 0.20 0.19 93 1008.6
20260509181559 53 240 2.0 6.0 0.01 0.20 0.19 93 1008.6
20260509180100 53 163 1.0 9.0 0.01 0.20 0.19 93 1008.5
20260509180002 53 163 2.0 9.0 0.01 0.20 0.19 93 1008.5
20260509174549 53 143 2.0 8.0 0.00 0.19 0.18 93 1008.4
20260509173008 52 124 4.0 10.0 0.01 0.19 0.18 93 1008.5
20260509171551 52 197 4.0 9.0 0.02 0.19 0.18 94 1008.4
20260509170013 52 168 4.0 10.0 0.03 0.19 0.18 94 1008.4
20260509164544 51 150 4.0 12.0 0.05 0.19 0.18 94 1008.3
20260509163010 51 118 1.0 5.0 0.05 0.18 0.17 94 1008.4
20260509161548 51 142 1.0 6.0 0.04 0.17 0.16 94 1008.3
20260509160029 51 136 2.0 6.0 0.04 0.16 0.15 94 1008.3
20260509154506 51 129 0.0 3.0 0.02 0.14 0.13 94 1008.4
20260509153051 50 195 0.0 5.0 0.02 0.13 0.12 94 1008.5
20260509151513 50 125 3.0 6.0 0.02 0.13 0.12 94 1008.6
20260509150037 50 161 3.0 5.0 0.02 0.12 0.11 94 1008.6
20260509144532 50 156 0.0 4.0 0.03 0.12 0.11 95 1008.7
20260509143004 50 169 0.0 3.0 0.02 0.11 0.10 95 1008.8
20260509141546 49 210 2.0 5.0 0.03 0.11 0.10 95 1008.9
20260509140010 49 183 1.0 3.0 0.03 0.10 0.09 95 1009.0
20260509134553 49 236 0.0 4.0 0.03 0.09 0.08 95 1009.0